Spring River (Missouri), Waco (07186000)

StateMissouriLatestHigh (830 cfs)
RiverSpring RiverRatingObservedEstimated
Updated2026-05-05 10:30 (1 hour ago)Flood - The river is flooding. Obstacles can be treacherous or deadly. The river should be avoided at this stage for casual trips and definitely for the inexperienced. Trips should be attempted only with protective gear and equipment.Flood(none)4536
Discharge830 cfs (median: 560 cfs)High - The river is high and potentially dangerous, especially for the young and / or inexperienced. Normal stream obstacles are sometimes difficult to navigate. Extended distances can be attempted, but canoe travel may not be advisable.High(none)612
Height2.86 feetGood - Conditions are ideal for a canoe or kayak. Boats typically will drag on fewer than one-quarter of riffles, if at all, and portages are unnecessary or rare. Normal float lengths can be attempted without a problem.Good(none)547
TrendRising (falling over 24 hours)Low - River is low but can still be floated. Some riffles are okay but most come with significant dragging and might need a portage. Float lengths should be reduced to accommodate low flow, dragging, and portages.Low(none)273
USGSExternal icon USGS Site (External icon Duck Duck Go Maps)Poor - River is too low to float comfortably. Most or all riffles will drag or must be portaged and some obstacles (such as slick shelf rock) cause undue problems. Avoid the river at this stage for casual paddling trips.Poor(none)51

Trending Data

Plot Image

Trips for Spring River (Missouri), Waco (07186000)

DateStartEndDistanceConditionDischargeHeightFishingDetails

A total of 0 rows are displayed.

Condition Descriptions

Fishing Conditions

Fish Species

Notes

Classic Trip List

The classic River Trips application is still available for use. It is updated with the new system using a data retrofit. It is no longer maintained. The original River Trips application is no longer updated (as of 1 Dec 2016) but can be checked for errors or for the condition of the data before it was converted to the new system.

Gauge Data Table

ObservationHeightDischargeMaximum
Discharge
Minimum
Discharge
Mean
Discharge
P05P10P20P25P50
(Median)
P75P80P90P95
2026-05-05 10:30 2.86 830 26200 (1999) 41 (1956) 1630 152 195 310 351 560 1270 1600 2950 5370
2026-05-05 09:30 2.85 825 26200 (1999) 41 (1956) 1630 152 195 310 351 560 1270 1600 2950 5370
2026-05-05 08:30 2.84 819 26200 (1999) 41 (1956) 1630 152 195 310 351 560 1270 1600 2950 5370
2026-05-05 07:30 2.90 854 26200 (1999) 41 (1956) 1630 152 195 310 351 560 1270 1600 2950 5370
2026-05-05 06:30 2.87 836 26200 (1999) 41 (1956) 1630 152 195 310 351 560 1270 1600 2950 5370
2026-05-05 05:30 2.85 825 26200 (1999) 41 (1956) 1630 152 195 310 351 560 1270 1600 2950 5370
2026-05-05 04:30 2.92 866 26200 (1999) 41 (1956) 1630 152 195 310 351 560 1270 1600 2950 5370
2026-05-05 03:30 2.91 860 26200 (1999) 41 (1956) 1630 152 195 310 351 560 1270 1600 2950 5370
2026-05-05 02:30 2.89 848 26200 (1999) 41 (1956) 1630 152 195 310 351 560 1270 1600 2950 5370
2026-05-05 01:30 2.85 825 26200 (1999) 41 (1956) 1630 152 195 310 351 560 1270 1600 2950 5370
2026-05-05 00:30 2.86 830 26200 (1999) 41 (1956) 1630 152 195 310 351 560 1270 1600 2950 5370
2026-05-04 23:30 2.93 871 26200 (1999) 41 (1956) 1630 152 195 310 351 560 1270 1600 2950 5370
2026-05-04 22:30 2.91 860 15900 (2017) 41 (1956) 1360 156 197 305 345 667 1280 1800 3110 5790
2026-05-04 21:30 2.91 860 15900 (2017) 41 (1956) 1360 156 197 305 345 667 1280 1800 3110 5790
2026-05-04 20:30 2.93 871 15900 (2017) 41 (1956) 1360 156 197 305 345 667 1280 1800 3110 5790
2026-05-04 19:30 2.93 871 15900 (2017) 41 (1956) 1360 156 197 305 345 667 1280 1800 3110 5790
2026-05-04 18:30 2.90 854 15900 (2017) 41 (1956) 1360 156 197 305 345 667 1280 1800 3110 5790
2026-05-04 17:30 2.96 889 15900 (2017) 41 (1956) 1360 156 197 305 345 667 1280 1800 3110 5790
2026-05-04 16:30 2.95 883 15900 (2017) 41 (1956) 1360 156 197 305 345 667 1280 1800 3110 5790
2026-05-04 15:30 2.96 889 15900 (2017) 41 (1956) 1360 156 197 305 345 667 1280 1800 3110 5790
2026-05-04 14:30 2.99 907 15900 (2017) 41 (1956) 1360 156 197 305 345 667 1280 1800 3110 5790
2026-05-04 13:30 2.96 889 15900 (2017) 41 (1956) 1360 156 197 305 345 667 1280 1800 3110 5790
2026-05-04 12:30 2.96 889 15900 (2017) 41 (1956) 1360 156 197 305 345 667 1280 1800 3110 5790
2026-05-04 11:30 2.98 901 15900 (2017) 41 (1956) 1360 156 197 305 345 667 1280 1800 3110 5790
2026-05-04 10:30 2.97 895 15900 (2017) 41 (1956) 1360 156 197 305 345 667 1280 1800 3110 5790
2026-05-04 09:30 3.02 926 15900 (2017) 41 (1956) 1360 156 197 305 345 667 1280 1800 3110 5790
2026-05-04 08:30 3.01 919 15900 (2017) 41 (1956) 1360 156 197 305 345 667 1280 1800 3110 5790
2026-05-04 07:30 3.01 919 15900 (2017) 41 (1956) 1360 156 197 305 345 667 1280 1800 3110 5790
2026-05-04 06:30 3.02 926 15900 (2017) 41 (1956) 1360 156 197 305 345 667 1280 1800 3110 5790
2026-05-04 05:30 3.02 926 15900 (2017) 41 (1956) 1360 156 197 305 345 667 1280 1800 3110 5790
2026-05-04 04:30 3.07 957 15900 (2017) 41 (1956) 1360 156 197 305 345 667 1280 1800 3110 5790
2026-05-04 03:30 3.00 913 15900 (2017) 41 (1956) 1360 156 197 305 345 667 1280 1800 3110 5790
2026-05-04 02:30 3.05 945 15900 (2017) 41 (1956) 1360 156 197 305 345 667 1280 1800 3110 5790
2026-05-04 01:30 3.06 951 15900 (2017) 41 (1956) 1360 156 197 305 345 667 1280 1800 3110 5790
2026-05-04 00:30 3.08 964 15900 (2017) 41 (1956) 1360 156 197 305 345 667 1280 1800 3110 5790
2026-05-03 23:30 3.09 970 15900 (2017) 41 (1956) 1360 156 197 305 345 667 1280 1800 3110 5790
2026-05-03 22:30 3.07 957 15200 (2017) 39 (1956) 1640 167 205 303 340 665 1640 2020 4130 6430
2026-05-03 21:30 3.08 964 15200 (2017) 39 (1956) 1640 167 205 303 340 665 1640 2020 4130 6430
2026-05-03 20:30 3.08 964 15200 (2017) 39 (1956) 1640 167 205 303 340 665 1640 2020 4130 6430
2026-05-03 19:30 3.10 976 15200 (2017) 39 (1956) 1640 167 205 303 340 665 1640 2020 4130 6430
2026-05-03 18:30 3.07 957 15200 (2017) 39 (1956) 1640 167 205 303 340 665 1640 2020 4130 6430
2026-05-03 17:30 3.09 970 15200 (2017) 39 (1956) 1640 167 205 303 340 665 1640 2020 4130 6430
2026-05-03 16:30 3.11 983 15200 (2017) 39 (1956) 1640 167 205 303 340 665 1640 2020 4130 6430
2026-05-03 15:30 3.11 983 15200 (2017) 39 (1956) 1640 167 205 303 340 665 1640 2020 4130 6430
2026-05-03 14:30 3.10 976 15200 (2017) 39 (1956) 1640 167 205 303 340 665 1640 2020 4130 6430
2026-05-03 13:30 3.16 1020 15200 (2017) 39 (1956) 1640 167 205 303 340 665 1640 2020 4130 6430
2026-05-03 12:30 3.15 1010 15200 (2017) 39 (1956) 1640 167 205 303 340 665 1640 2020 4130 6430
2026-05-03 11:30 3.18 1020 15200 (2017) 39 (1956) 1640 167 205 303 340 665 1640 2020 4130 6430
2026-05-03 10:30 3.15 1010 15200 (2017) 39 (1956) 1640 167 205 303 340 665 1640 2020 4130 6430
2026-05-03 09:30 3.21 1040 15200 (2017) 39 (1956) 1640 167 205 303 340 665 1640 2020 4130 6430
2026-05-03 08:30 3.20 1030 15200 (2017) 39 (1956) 1640 167 205 303 340 665 1640 2020 4130 6430
2026-05-03 07:30 3.20 1030 15200 (2017) 39 (1956) 1640 167 205 303 340 665 1640 2020 4130 6430
2026-05-03 06:30 3.23 1050 15200 (2017) 39 (1956) 1640 167 205 303 340 665 1640 2020 4130 6430
2026-05-03 05:30 3.26 1070 15200 (2017) 39 (1956) 1640 167 205 303 340 665 1640 2020 4130 6430
2026-05-03 04:30 3.26 1070 15200 (2017) 39 (1956) 1640 167 205 303 340 665 1640 2020 4130 6430
2026-05-03 03:30 3.21 1040 15200 (2017) 39 (1956) 1640 167 205 303 340 665 1640 2020 4130 6430
2026-05-03 02:30 3.23 1050 15200 (2017) 39 (1956) 1640 167 205 303 340 665 1640 2020 4130 6430
2026-05-03 01:30 3.29 1090 15200 (2017) 39 (1956) 1640 167 205 303 340 665 1640 2020 4130 6430
2026-05-03 00:30 3.32 1120 15200 (2017) 39 (1956) 1640 167 205 303 340 665 1640 2020 4130 6430
2026-05-02 23:30 3.31 1110 15200 (2017) 39 (1956) 1640 167 205 303 340 665 1640 2020 4130 6430
2026-05-02 22:30 3.28 1090 23400 (2019) 39 (1956) 2250 169 199 320 366 691 1760 2220 5740 10400
2026-05-02 21:30 3.29 1090 23400 (2019) 39 (1956) 2250 169 199 320 366 691 1760 2220 5740 10400
2026-05-02 20:30 3.36 1140 23400 (2019) 39 (1956) 2250 169 199 320 366 691 1760 2220 5740 10400
2026-05-02 19:30 3.33 1120 23400 (2019) 39 (1956) 2250 169 199 320 366 691 1760 2220 5740 10400
2026-05-02 18:30 3.39 1160 23400 (2019) 39 (1956) 2250 169 199 320 366 691 1760 2220 5740 10400
2026-05-02 17:30 3.38 1160 23400 (2019) 39 (1956) 2250 169 199 320 366 691 1760 2220 5740 10400
2026-05-02 16:30 3.36 1140 23400 (2019) 39 (1956) 2250 169 199 320 366 691 1760 2220 5740 10400
2026-05-02 15:30 3.39 1160 23400 (2019) 39 (1956) 2250 169 199 320 366 691 1760 2220 5740 10400
2026-05-02 14:30 3.42 1180 23400 (2019) 39 (1956) 2250 169 199 320 366 691 1760 2220 5740 10400
2026-05-02 13:30 3.45 1210 23400 (2019) 39 (1956) 2250 169 199 320 366 691 1760 2220 5740 10400
2026-05-02 12:30 3.39 1160 23400 (2019) 39 (1956) 2250 169 199 320 366 691 1760 2220 5740 10400
2026-05-02 11:30 3.48 1230 23400 (2019) 39 (1956) 2250 169 199 320 366 691 1760 2220 5740 10400
2026-05-02 10:30 3.49 1230 23400 (2019) 39 (1956) 2250 169 199 320 366 691 1760 2220 5740 10400
2026-05-02 09:30 3.52 1250 23400 (2019) 39 (1956) 2250 169 199 320 366 691 1760 2220 5740 10400
2026-05-02 08:30 3.49 1230 23400 (2019) 39 (1956) 2250 169 199 320 366 691 1760 2220 5740 10400
2026-05-02 07:30 3.58 1290 23400 (2019) 39 (1956) 2250 169 199 320 366 691 1760 2220 5740 10400
2026-05-02 06:30 3.57 1280 23400 (2019) 39 (1956) 2250 169 199 320 366 691 1760 2220 5740 10400
2026-05-02 05:30 3.57 1280 23400 (2019) 39 (1956) 2250 169 199 320 366 691 1760 2220 5740 10400
2026-05-02 04:30 3.63 1330 23400 (2019) 39 (1956) 2250 169 199 320 366 691 1760 2220 5740 10400
2026-05-02 03:30 3.62 1320 23400 (2019) 39 (1956) 2250 169 199 320 366 691 1760 2220 5740 10400
2026-05-02 02:30 3.63 1330 23400 (2019) 39 (1956) 2250 169 199 320 366 691 1760 2220 5740 10400
2026-05-02 01:30 3.64 1330 23400 (2019) 39 (1956) 2250 169 199 320 366 691 1760 2220 5740 10400
2026-05-02 00:30 3.72 1390 23400 (2019) 39 (1956) 2250 169 199 320 366 691 1760 2220 5740 10400
2026-05-01 23:30 3.70 1380 23400 (2019) 39 (1956) 2250 169 199 320 366 691 1760 2220 5740 10400
2026-05-01 22:30 3.73 1400 36400 (2017) 34 (1956) 2530 166 206 325 381 697 1720 2300 5630 13700
2026-05-01 21:30 3.75 1410 36400 (2017) 34 (1956) 2530 166 206 325 381 697 1720 2300 5630 13700
2026-05-01 20:30 3.78 1430 36400 (2017) 34 (1956) 2530 166 206 325 381 697 1720 2300 5630 13700
2026-05-01 19:30 3.70 1380 36400 (2017) 34 (1956) 2530 166 206 325 381 697 1720 2300 5630 13700
2026-05-01 18:30 3.77 1430 36400 (2017) 34 (1956) 2530 166 206 325 381 697 1720 2300 5630 13700
2026-05-01 17:30 3.82 1460 36400 (2017) 34 (1956) 2530 166 206 325 381 697 1720 2300 5630 13700
2026-05-01 16:30 3.82 1460 36400 (2017) 34 (1956) 2530 166 206 325 381 697 1720 2300 5630 13700
2026-05-01 15:30 3.87 1490 36400 (2017) 34 (1956) 2530 166 206 325 381 697 1720 2300 5630 13700
2026-05-01 14:30 3.91 1520 36400 (2017) 34 (1956) 2530 166 206 325 381 697 1720 2300 5630 13700
2026-05-01 13:30 3.92 1530 36400 (2017) 34 (1956) 2530 166 206 325 381 697 1720 2300 5630 13700
2026-05-01 12:30 3.98 1570 36400 (2017) 34 (1956) 2530 166 206 325 381 697 1720 2300 5630 13700
2026-05-01 11:30 4.03 1610 36400 (2017) 34 (1956) 2530 166 206 325 381 697 1720 2300 5630 13700
2026-05-01 10:30 4.03 1610 36400 (2017) 34 (1956) 2530 166 206 325 381 697 1720 2300 5630 13700
2026-05-01 09:30 4.09 1650 36400 (2017) 34 (1956) 2530 166 206 325 381 697 1720 2300 5630 13700
2026-05-01 08:30 4.05 1620 36400 (2017) 34 (1956) 2530 166 206 325 381 697 1720 2300 5630 13700
2026-05-01 07:30 4.13 1680 36400 (2017) 34 (1956) 2530 166 206 325 381 697 1720 2300 5630 13700
2026-05-01 06:30 4.15 1700 36400 (2017) 34 (1956) 2530 166 206 325 381 697 1720 2300 5630 13700
2026-05-01 05:30 4.21 1740 36400 (2017) 34 (1956) 2530 166 206 325 381 697 1720 2300 5630 13700
2026-05-01 04:30 4.23 1750 36400 (2017) 34 (1956) 2530 166 206 325 381 697 1720 2300 5630 13700
2026-05-01 03:30 4.24 1760 36400 (2017) 34 (1956) 2530 166 206 325 381 697 1720 2300 5630 13700
2026-05-01 02:30 4.32 1820 36400 (2017) 34 (1956) 2530 166 206 325 381 697 1720 2300 5630 13700
2026-05-01 01:30 4.29 1800 36400 (2017) 34 (1956) 2530 166 206 325 381 697 1720 2300 5630 13700
2026-05-01 00:30 4.46 1930 36400 (2017) 34 (1956) 2530 166 206 325 381 697 1720 2300 5630 13700
2026-04-30 23:30 4.44 1910 36400 (2017) 34 (1956) 2530 166 206 325 381 697 1720 2300 5630 13700
2026-04-30 22:30 4.56 2000 45700 (2017) 34 (1956) 2120 139 199 323 359 653 1640 2140 5480 9700
2026-04-30 21:30 4.60 2030 45700 (2017) 34 (1956) 2120 139 199 323 359 653 1640 2140 5480 9700
2026-04-30 20:30 4.62 2040 45700 (2017) 34 (1956) 2120 139 199 323 359 653 1640 2140 5480 9700
2026-04-30 19:30 4.67 2080 45700 (2017) 34 (1956) 2120 139 199 323 359 653 1640 2140 5480 9700
2026-04-30 18:30 4.72 2120 45700 (2017) 34 (1956) 2120 139 199 323 359 653 1640 2140 5480 9700
2026-04-30 17:30 4.79 2180 45700 (2017) 34 (1956) 2120 139 199 323 359 653 1640 2140 5480 9700
2026-04-30 16:30 4.81 2190 45700 (2017) 34 (1956) 2120 139 199 323 359 653 1640 2140 5480 9700
2026-04-30 15:30 4.86 2230 45700 (2017) 34 (1956) 2120 139 199 323 359 653 1640 2140 5480 9700
2026-04-30 14:30 4.90 2260 45700 (2017) 34 (1956) 2120 139 199 323 359 653 1640 2140 5480 9700
2026-04-30 13:30 4.95 2300 45700 (2017) 34 (1956) 2120 139 199 323 359 653 1640 2140 5480 9700
2026-04-30 12:30 4.96 2300 45700 (2017) 34 (1956) 2120 139 199 323 359 653 1640 2140 5480 9700
2026-04-30 11:30 4.88 2250 45700 (2017) 34 (1956) 2120 139 199 323 359 653 1640 2140 5480 9700
2026-04-30 10:30 4.94 2290 45700 (2017) 34 (1956) 2120 139 199 323 359 653 1640 2140 5480 9700
2026-04-30 09:30 4.88 2250 45700 (2017) 34 (1956) 2120 139 199 323 359 653 1640 2140 5480 9700
2026-04-30 08:30 4.88 2250 45700 (2017) 34 (1956) 2120 139 199 323 359 653 1640 2140 5480 9700
2026-04-30 07:30 4.96 2300 45700 (2017) 34 (1956) 2120 139 199 323 359 653 1640 2140 5480 9700
2026-04-30 06:30 4.95 2300 45700 (2017) 34 (1956) 2120 139 199 323 359 653 1640 2140 5480 9700
2026-04-30 05:30 4.96 2300 45700 (2017) 34 (1956) 2120 139 199 323 359 653 1640 2140 5480 9700
2026-04-30 04:30 5.04 2370 45700 (2017) 34 (1956) 2120 139 199 323 359 653 1640 2140 5480 9700
2026-04-30 03:30 5.10 2420 45700 (2017) 34 (1956) 2120 139 199 323 359 653 1640 2140 5480 9700
2026-04-30 02:30 5.19 2490 45700 (2017) 34 (1956) 2120 139 199 323 359 653 1640 2140 5480 9700
2026-04-30 01:30 5.30 2570 45700 (2017) 34 (1956) 2120 139 199 323 359 653 1640 2140 5480 9700
2026-04-30 00:30 5.36 2620 45700 (2017) 34 (1956) 2120 139 199 323 359 653 1640 2140 5480 9700
2026-04-29 23:30 5.52 2760 45700 (2017) 34 (1956) 2120 139 199 323 359 653 1640 2140 5480 9700
2026-04-29 22:30 5.61 2820 12300 (1996) 38 (1956) 1390 123 168 301 367 610 1210 1530 2920 7110
2026-04-29 21:30 5.66 2870 12300 (1996) 38 (1956) 1390 123 168 301 367 610 1210 1530 2920 7110
2026-04-29 20:30 5.85 3030 12300 (1996) 38 (1956) 1390 123 168 301 367 610 1210 1530 2920 7110
2026-04-29 19:30 5.98 3130 12300 (1996) 38 (1956) 1390 123 168 301 367 610 1210 1530 2920 7110
2026-04-29 18:30 6.13 3260 12300 (1996) 38 (1956) 1390 123 168 301 367 610 1210 1530 2920 7110
2026-04-29 17:30 6.32 3430 12300 (1996) 38 (1956) 1390 123 168 301 367 610 1210 1530 2920 7110
2026-04-29 16:30 6.49 3590 12300 (1996) 38 (1956) 1390 123 168 301 367 610 1210 1530 2920 7110
2026-04-29 15:30 6.67 3750 12300 (1996) 38 (1956) 1390 123 168 301 367 610 1210 1530 2920 7110
2026-04-29 14:30 6.88 3950 12300 (1996) 38 (1956) 1390 123 168 301 367 610 1210 1530 2920 7110
2026-04-29 13:30 7.08 4140 12300 (1996) 38 (1956) 1390 123 168 301 367 610 1210 1530 2920 7110
2026-04-29 12:30 7.28 4330 12300 (1996) 38 (1956) 1390 123 168 301 367 610 1210 1530 2920 7110
2026-04-29 11:30 7.43 4470 12300 (1996) 38 (1956) 1390 123 168 301 367 610 1210 1530 2920 7110
2026-04-29 10:30 7.65 4680 12300 (1996) 38 (1956) 1390 123 168 301 367 610 1210 1530 2920 7110
2026-04-29 09:30 7.87 4900 12300 (1996) 38 (1956) 1390 123 168 301 367 610 1210 1530 2920 7110
2026-04-29 08:30 8.05 5070 12300 (1996) 38 (1956) 1390 123 168 301 367 610 1210 1530 2920 7110
2026-04-29 07:30 8.15 5170 12300 (1996) 38 (1956) 1390 123 168 301 367 610 1210 1530 2920 7110
2026-04-29 06:30 8.31 5320 12300 (1996) 38 (1956) 1390 123 168 301 367 610 1210 1530 2920 7110
2026-04-29 05:30 8.34 5350 12300 (1996) 38 (1956) 1390 123 168 301 367 610 1210 1530 2920 7110
2026-04-29 04:30 8.35 5360 12300 (1996) 38 (1956) 1390 123 168 301 367 610 1210 1530 2920 7110
2026-04-29 03:30 8.28 5290 12300 (1996) 38 (1956) 1390 123 168 301 367 610 1210 1530 2920 7110
2026-04-29 02:30 8.14 5160 12300 (1996) 38 (1956) 1390 123 168 301 367 610 1210 1530 2920 7110
2026-04-29 01:30 7.95 4980 12300 (1996) 38 (1956) 1390 123 168 301 367 610 1210 1530 2920 7110
2026-04-29 00:30 7.88 4910 12300 (1996) 38 (1956) 1390 123 168 301 367 610 1210 1530 2920 7110
2026-04-28 23:30 7.81 4840 12300 (1996) 38 (1956) 1390 123 168 301 367 610 1210 1530 2920 7110
2026-04-28 22:30 7.72 4750 17400 (1999) 38 (1954) 1410 144 181 293 377 605 1310 1520 3590 5730
2026-04-28 21:30 7.62 4660 17400 (1999) 38 (1954) 1410 144 181 293 377 605 1310 1520 3590 5730
2026-04-28 20:30 7.62 4660 17400 (1999) 38 (1954) 1410 144 181 293 377 605 1310 1520 3590 5730
2026-04-28 19:30 7.46 4500 17400 (1999) 38 (1954) 1410 144 181 293 377 605 1310 1520 3590 5730
2026-04-28 18:30 7.30 4340 17400 (1999) 38 (1954) 1410 144 181 293 377 605 1310 1520 3590 5730
2026-04-28 17:30 6.92 3990 17400 (1999) 38 (1954) 1410 144 181 293 377 605 1310 1520 3590 5730
2026-04-28 16:30 6.28 3390 17400 (1999) 38 (1954) 1410 144 181 293 377 605 1310 1520 3590 5730
2026-04-28 15:30 5.28 2560 17400 (1999) 38 (1954) 1410 144 181 293 377 605 1310 1520 3590 5730
2026-04-28 14:30 4.44 1910 17400 (1999) 38 (1954) 1410 144 181 293 377 605 1310 1520 3590 5730
2026-04-28 13:30 4.03 1610 17400 (1999) 38 (1954) 1410 144 181 293 377 605 1310 1520 3590 5730
2026-04-28 12:30 3.95 1550 17400 (1999) 38 (1954) 1410 144 181 293 377 605 1310 1520 3590 5730
2026-04-28 11:30 3.94 1540 17400 (1999) 38 (1954) 1410 144 181 293 377 605 1310 1520 3590 5730
2026-04-28 10:30 3.97 1570 17400 (1999) 38 (1954) 1410 144 181 293 377 605 1310 1520 3590 5730
2026-04-28 09:30 4.00 1590 17400 (1999) 38 (1954) 1410 144 181 293 377 605 1310 1520 3590 5730
2026-04-28 08:30 4.04 1620 17400 (1999) 38 (1954) 1410 144 181 293 377 605 1310 1520 3590 5730
2026-04-28 07:30 4.12 1680 17400 (1999) 38 (1954) 1410 144 181 293 377 605 1310 1520 3590 5730
2026-04-28 06:30 4.16 1710 17400 (1999) 38 (1954) 1410 144 181 293 377 605 1310 1520 3590 5730
2026-04-28 05:30 4.24 1760 17400 (1999) 38 (1954) 1410 144 181 293 377 605 1310 1520 3590 5730
2026-04-28 04:30 4.27 1780 17400 (1999) 38 (1954) 1410 144 181 293 377 605 1310 1520 3590 5730
2026-04-28 03:30 4.37 1860 17400 (1999) 38 (1954) 1410 144 181 293 377 605 1310 1520 3590 5730
2026-04-28 02:30 4.40 1880 17400 (1999) 38 (1954) 1410 144 181 293 377 605 1310 1520 3590 5730
2026-04-28 01:30 4.49 1950 17400 (1999) 38 (1954) 1410 144 181 293 377 605 1310 1520 3590 5730
2026-04-28 00:30 4.57 2000 17400 (1999) 38 (1954) 1410 144 181 293 377 605 1310 1520 3590 5730
2026-04-27 23:30 4.67 2080 17400 (1999) 38 (1954) 1410 144 181 293 377 605 1310 1520 3590 5730

A total of 180 rows are displayed for years 1924 through 2025.